SLI1052 MMMX-MMOX

Flight info

Callsign SLI1052
Flight time 0h 39m
Altitude 35000
Route TEVOS2A TEVOS UT113 OAX
Aircraft E190/M-SDE3GILORVW/S

Departure

Time 2026-05-08 02:51
Airport Mexico City Benito Juárez International Airport (MMMX)

Arrival

Time 2026-05-08 03:30
Airport Xoxocotlán International Airport (MMOX)
Time Latitude Longitude Altitude Speed Heading
2026-05-08 02:01 19.42194 -99.08055 7302 ft 0 kts 30°
2026-05-08 02:39 19.42173 -99.08066 7301 ft 4 kts 15°
2026-05-08 02:39 19.42148 -99.08068 7301 ft 4 kts 339°
2026-05-08 02:39 19.42131 -99.08056 7302 ft 1 kts 301°
2026-05-08 02:40 19.42129 -99.08052 7301 ft 0 kts 301°
2026-05-08 02:43 19.42135 -99.08064 7301 ft 5 kts 301°
2026-05-08 02:44 19.42157 -99.08103 7302 ft 7 kts 300°
2026-05-08 02:44 19.42182 -99.08146 7301 ft 7 kts 303°
2026-05-08 02:44 19.42212 -99.08192 7301 ft 8 kts 307°
2026-05-08 02:44 19.42261 -99.08206 7301 ft 7 kts 355°
2026-05-08 02:45 19.42311 -99.08202 7301 ft 8 kts
2026-05-08 02:45 19.42365 -99.08200 7301 ft 8 kts 353°
2026-05-08 02:45 19.42414 -99.08223 7301 ft 8 kts 330°
2026-05-08 02:45 19.42464 -99.08253 7301 ft 9 kts 330°
2026-05-08 02:46 19.42519 -99.08286 7301 ft 9 kts 331°
2026-05-08 02:46 19.42564 -99.08335 7302 ft 9 kts 292°
2026-05-08 02:46 19.42591 -99.08401 7302 ft 10 kts 295°
2026-05-08 02:46 19.42620 -99.08468 7301 ft 10 kts 286°
2026-05-08 02:47 19.42628 -99.08492 7301 ft 0 kts 292°
2026-05-08 02:48 19.42630 -99.08498 7301 ft 3 kts 292°
2026-05-08 02:48 19.42657 -99.08563 7301 ft 17 kts 293°
2026-05-08 02:49 19.42675 -99.08678 7303 ft 16 kts 274°
2026-05-08 02:49 19.42684 -99.08794 7301 ft 14 kts 274°
2026-05-08 02:49 19.42691 -99.08899 7301 ft 14 kts 274°
2026-05-08 02:49 19.42698 -99.09004 7301 ft 10 kts 274°
2026-05-08 02:50 19.42731 -99.09057 7301 ft 9 kts 346°
2026-05-08 02:50 19.42775 -99.09021 7302 ft 8 kts 57°
2026-05-08 02:50 19.42817 -99.08946 7302 ft 30 kts 58°
2026-05-08 02:50 19.43040 -99.08552 7300 ft 93 kts 59°
2026-05-08 02:51 19.43474 -99.07781 7303 ft 149 kts 60°
2026-05-08 02:51 19.44085 -99.06695 7413 ft 189 kts 58°
2026-05-08 02:51 19.44788 -99.05481 8210 ft 195 kts 54°
2026-05-08 02:51 19.45536 -99.04214 8888 ft 210 kts 57°
2026-05-08 02:52 19.46280 -99.02843 9540 ft 222 kts 59°
2026-05-08 02:52 19.47068 -99.01392 10276 ft 232 kts 59°
2026-05-08 02:52 19.47874 -98.99868 11004 ft 242 kts 66°
2026-05-08 02:52 19.48222 -98.98111 11690 ft 250 kts 92°
2026-05-08 02:53 19.47769 -98.96262 12165 ft 273 kts 118°
2026-05-08 02:53 19.46521 -98.94682 12857 ft 284 kts 136°
2026-05-08 02:53 19.45084 -98.93218 13883 ft 286 kts 136°
2026-05-08 02:53 19.43656 -98.91741 14907 ft 287 kts 136°
2026-05-08 02:54 19.42227 -98.90289 15842 ft 290 kts 138°
2026-05-08 02:54 19.40730 -98.88790 16805 ft 292 kts 137°
2026-05-08 02:54 19.39265 -98.87317 17645 ft 296 kts 138°
2026-05-08 02:54 19.37733 -98.85842 18346 ft 302 kts 140°
2026-05-08 02:55 19.36128 -98.84385 18532 ft 307 kts 141°
2026-05-08 02:55 19.32609 -98.81907 19018 ft 311 kts 163°
2026-05-08 02:55 19.30450 -98.81530 19612 ft 320 kts 180°
2026-05-08 02:56 19.28196 -98.81663 20163 ft 329 kts 184°
2026-05-08 02:56 19.25874 -98.81873 20677 ft 340 kts 185°
2026-05-08 02:56 19.23516 -98.82113 21297 ft 346 kts 185°
2026-05-08 02:56 19.21103 -98.82374 21891 ft 352 kts 186°
2026-05-08 02:57 19.18646 -98.82659 22512 ft 357 kts 186°
2026-05-08 02:57 19.16178 -98.82948 23199 ft 359 kts 185°
2026-05-08 02:57 19.13674 -98.83106 23825 ft 361 kts 182°
2026-05-08 02:57 19.11154 -98.83219 24428 ft 364 kts 183°
2026-05-08 02:58 19.09469 -98.83303 24794 ft 367 kts 183°
2026-05-08 02:58 19.06907 -98.83442 25262 ft 372 kts 183°
2026-05-08 02:58 19.04317 -98.83584 25777 ft 375 kts 184°
2026-05-08 02:58 19.01687 -98.83734 26227 ft 379 kts 184°
2026-05-08 02:59 18.99044 -98.83890 26705 ft 382 kts 184°
2026-05-08 02:59 18.96361 -98.84048 27129 ft 387 kts 184°
2026-05-08 02:59 18.93658 -98.84209 27569 ft 390 kts 184°
2026-05-08 02:59 18.90951 -98.84538 27986 ft 393 kts 190°
2026-05-08 03:00 18.88253 -98.85034 28380 ft 396 kts 191°
2026-05-08 03:00 18.85524 -98.85524 28770 ft 399 kts 190°
2026-05-08 03:00 18.82780 -98.85982 29196 ft 399 kts 189°
2026-05-08 03:01 18.77374 -98.86852 29066 ft 382 kts 189°
2026-05-08 03:01 18.74765 -98.87270 29381 ft 379 kts 189°
2026-05-08 03:01 18.72155 -98.87688 29789 ft 381 kts 189°
2026-05-08 03:01 18.69524 -98.88107 30118 ft 385 kts 189°
2026-05-08 03:02 18.66854 -98.88534 30375 ft 390 kts 189°
2026-05-08 03:02 18.64144 -98.88966 30568 ft 397 kts 190°
2026-05-08 03:02 18.61395 -98.89409 30698 ft 404 kts 189°
2026-05-08 03:02 18.58626 -98.89854 30870 ft 410 kts 189°
2026-05-08 03:03 18.55751 -98.90310 31063 ft 415 kts 189°
2026-05-08 03:03 18.52871 -98.90761 31295 ft 419 kts 189°
2026-05-08 03:03 18.49979 -98.91218 31563 ft 422 kts 189°
2026-05-08 03:03 18.47084 -98.91555 31869 ft 425 kts 180°
2026-05-08 03:04 18.44167 -98.91090 32149 ft 429 kts 162°
2026-05-08 03:04 18.41507 -98.89652 32429 ft 433 kts 144°
2026-05-08 03:04 18.39379 -98.87390 32704 ft 438 kts 129°
2026-05-08 03:04 18.37587 -98.84793 32953 ft 440 kts 126°
2026-05-08 03:05 18.35858 -98.82164 33249 ft 437 kts 126°
2026-05-08 03:05 18.32361 -98.76760 33172 ft 457 kts 126°
2026-05-08 03:06 18.28739 -98.71132 33110 ft 468 kts 126°
2026-05-08 03:06 18.25034 -98.65435 33117 ft 473 kts 126°
2026-05-08 03:07 18.21333 -98.59748 33108 ft 474 kts 126°
2026-05-08 03:07 18.17605 -98.54025 33124 ft 474 kts 126°
2026-05-08 03:08 18.13881 -98.48305 33125 ft 474 kts 125°
2026-05-08 03:08 18.10206 -98.42531 33130 ft 474 kts 124°
2026-05-08 03:09 18.06540 -98.36776 33128 ft 474 kts 125°
2026-05-08 03:09 18.02869 -98.31026 33147 ft 474 kts 125°
2026-05-08 03:10 17.99193 -98.25282 33142 ft 474 kts 125°
2026-05-08 03:10 17.95545 -98.19583 33145 ft 473 kts 125°
2026-05-08 03:11 17.91866 -98.13845 33141 ft 473 kts 125°
2026-05-08 03:11 17.88173 -98.08085 33139 ft 473 kts 125°
2026-05-08 03:12 17.84513 -98.02385 33133 ft 473 kts 125°
2026-05-08 03:12 17.80838 -97.96661 33133 ft 474 kts 125°
2026-05-08 03:13 17.77155 -97.90928 33132 ft 473 kts 125°
2026-05-08 03:13 17.73465 -97.85197 33118 ft 473 kts 125°
2026-05-08 03:14 17.69770 -97.79463 33123 ft 474 kts 125°
2026-05-08 03:14 17.65952 -97.73888 33123 ft 473 kts 128°
2026-05-08 03:15 17.62002 -97.68356 33120 ft 473 kts 127°
2026-05-08 03:15 17.58075 -97.62802 33114 ft 473 kts 127°
2026-05-08 03:16 17.54162 -97.57256 33120 ft 473 kts 127°
2026-05-08 03:16 17.50242 -97.51704 33120 ft 473 kts 127°
2026-05-08 03:17 17.46353 -97.46199 33122 ft 473 kts 127°
2026-05-08 03:17 17.42518 -97.40594 33174 ft 470 kts 125°
2026-05-08 03:17 17.40701 -97.37783 32549 ft 461 kts 125°
2026-05-08 03:18 17.38927 -97.35046 32037 ft 452 kts 125°
2026-05-08 03:18 17.37134 -97.32289 31523 ft 463 kts 125°
2026-05-08 03:18 17.35293 -97.29478 30997 ft 469 kts 125°
2026-05-08 03:18 17.33441 -97.26663 30441 ft 470 kts 125°
2026-05-08 03:19 17.31584 -97.23846 29931 ft 470 kts 126°
2026-05-08 03:19 17.29753 -97.21068 29414 ft 470 kts 125°
2026-05-08 03:19 17.27878 -97.18225 28868 ft 470 kts 125°
2026-05-08 03:19 17.26043 -97.15439 28339 ft 466 kts 125°
2026-05-08 03:20 17.24216 -97.12661 27826 ft 460 kts 125°
2026-05-08 03:20 17.22414 -97.09927 27282 ft 455 kts 126°
2026-05-08 03:20 17.20618 -97.07218 26774 ft 450 kts 126°
2026-05-08 03:20 17.18806 -97.04567 26237 ft 445 kts 127°
2026-05-08 03:21 17.17005 -97.01954 25708 ft 441 kts 127°
2026-05-08 03:21 17.15227 -96.99366 25194 ft 436 kts 127°
2026-05-08 03:21 17.13462 -96.96793 24663 ft 432 kts 127°
2026-05-08 03:21 17.11720 -96.94256 24125 ft 427 kts 127°
2026-05-08 03:22 17.10003 -96.91741 23608 ft 422 kts 126°
2026-05-08 03:22 17.08299 -96.89251 23068 ft 419 kts 127°
2026-05-08 03:22 17.06604 -96.86783 22552 ft 416 kts 126°
2026-05-08 03:22 17.04959 -96.84303 22012 ft 413 kts 124°
2026-05-08 03:23 17.03410 -96.81783 21509 ft 410 kts 123°
2026-05-08 03:23 17.01883 -96.79286 20967 ft 407 kts 123°
2026-05-08 03:23 17.00366 -96.76847 20469 ft 404 kts 124°
2026-05-08 03:23 16.98750 -96.74478 20628 ft 393 kts 134°
2026-05-08 03:24 16.96619 -96.72816 21769 ft 383 kts 149°
2026-05-08 03:24 16.94204 -96.71471 20537 ft 405 kts 155°
2026-05-08 03:24 16.91423 -96.70580 18483 ft 430 kts 168°
2026-05-08 03:24 16.88462 -96.70259 17520 ft 423 kts 176°
2026-05-08 03:25 16.85574 -96.70145 16870 ft 407 kts 177°
2026-05-08 03:25 16.82779 -96.70075 16171 ft 396 kts 178°
2026-05-08 03:25 16.80059 -96.70267 15095 ft 394 kts 191°
2026-05-08 03:25 16.77630 -96.71534 13011 ft 402 kts 224°
2026-05-08 03:26 16.76356 -96.74032 11874 ft 384 kts 257°
2026-05-08 03:26 16.76570 -96.76694 10782 ft 364 kts 294°
2026-05-08 03:26 16.78214 -96.78532 10196 ft 335 kts 332°
2026-05-08 03:26 16.80369 -96.79096 9680 ft 312 kts
2026-05-08 03:27 16.82453 -96.78620 8478 ft 309 kts 19°
2026-05-08 03:27 16.84461 -96.77902 7489 ft 292 kts 18°
2026-05-08 03:27 16.86207 -96.77319 7663 ft 241 kts 17°
2026-05-08 03:27 16.87719 -96.76872 7470 ft 210 kts 18°
2026-05-08 03:28 16.89026 -96.76356 7207 ft 203 kts 22°
2026-05-08 03:28 16.90349 -96.75779 6882 ft 206 kts 24°
2026-05-08 03:28 16.91605 -96.75141 6914 ft 190 kts 27°
2026-05-08 03:28 16.92843 -96.74613 6599 ft 197 kts 19°
2026-05-08 03:29 16.94173 -96.74214 6293 ft 201 kts 15°
2026-05-08 03:29 16.95551 -96.73852 5986 ft 206 kts 15°
2026-05-08 03:29 16.96899 -96.73498 5635 ft 195 kts 17°
2026-05-08 03:29 16.98191 -96.73094 5223 ft 191 kts 18°
2026-05-08 03:30 17.00474 -96.72421 4990 ft 126 kts 16°
2026-05-08 03:30 17.01131 -96.72359 4993 ft 22 kts 218°
2026-05-08 03:31 17.00909 -96.72339 4993 ft 13 kts 163°
2026-05-08 03:31 17.00729 -96.72344 4993 ft 14 kts 198°
2026-05-08 03:32 17.00631 -96.72374 4992 ft 17 kts 197°
2026-05-08 03:32 17.00507 -96.72413 4991 ft 21 kts 197°
2026-05-08 03:32 17.00371 -96.72449 4988 ft 11 kts 189°
2026-05-08 03:32 17.00309 -96.72406 4987 ft 12 kts 110°
2026-05-08 03:33 17.00289 -96.72333 4991 ft 8 kts 108°
2026-05-08 03:33 17.00271 -96.72289 4993 ft 5 kts 138°
2026-05-08 03:33 17.00229 -96.72294 4993 ft 8 kts 196°
2026-05-08 03:33 17.00162 -96.72313 4993 ft 11 kts 195°
2026-05-08 03:34 17.00084 -96.72336 4993 ft 11 kts 196°
2026-05-08 03:34 17.00042 -96.72346 4993 ft 4 kts 175°
2026-05-08 03:34 17.00026 -96.72322 4993 ft 5 kts 108°
2026-05-08 03:34 17.00018 -96.72292 4993 ft 2 kts 105°
2026-05-08 03:35 17.00017 -96.72289 4993 ft 0 kts 105°